Вернуться в каталог

STARLINK-2603

АктивенСвязьVLEO
NORAD 48375·PAYLOAD·🇺🇸 United States

Запущен May 4, 2021 с Cape Canaveral Space Force Station

Loading…

Ближайшие Пролёты (ближайшие 24 часа)

TLE

СвежийSource: CelesTrak SupGP

Эпоха: Sep 15, 2026, 02:10 UTC

1 48375C 21038Y   26258.09076389 -.00008284  00000+0 -26639-3 0  2586
2 48375  53.1584 186.3754 0001458  85.5785 333.8997 15.31703905    12

Отслеживайте STARLINK-2603 в реальном времени с AllMySat

Download on the App Store